This is the latest recevied weather packets stored in our database for station/object DL2GPS-3. If no packets are shown the sender has not sent any weather packets the latest 10 day(s).
| Time | Temp. | Humidity | Pressure | Rain* | Wind** | Luminosity | Snow |
|---|---|---|---|---|---|---|---|
| 1777671635 | 11.67° C | 41% | 1025.8 hPa | - | - | - | - |
| 1777671030 | 11.67° C | 41% | 1025.7 hPa | - | - | - | - |
| 1777670426 | 12.22° C | 41% | 1025.7 hPa | - | - | - | - |
| 1777669821 | 12.22° C | 40% | 1025.7 hPa | - | - | - | - |
| 1777669216 | 12.22° C | 39% | 1025.7 hPa | - | - | - | - |
| 1777668611 | 12.78° C | 38% | 1025.7 hPa | - | - | - | - |
| 1777668006 | 12.78° C | 38% | 1025.8 hPa | - | - | - | - |
| 1777667401 | 12.78° C | 37% | 1025.9 hPa | - | - | - | - |
| 1777666796 | 13.33° C | 36% | 1025.8 hPa | - | - | - | - |
| 1777666191 | 13.33° C | 37% | 1025.7 hPa | - | - | - | - |
| 1777665587 | 12.78° C | 37% | 1025.7 hPa | - | - | - | - |
| 1777664981 | 13.33° C | 37% | 1025.6 hPa | - | - | - | - |
| 1777664377 | 13.33° C | 37% | 1025.7 hPa | - | - | - | - |
| 1777663772 | 12.78° C | 37% | 1025.5 hPa | - | - | - | - |
| 1777663167 | 13.33° C | 36% | 1025.5 hPa | - | - | - | - |
| 1777662561 | 13.33° C | 38% | 1025.6 hPa | - | - | - | - |
| 1777661956 | 13.89° C | 35% | 1025.5 hPa | - | - | - | - |
| 1777661351 | 13.89° C | 35% | 1025.4 hPa | - | - | - | - |
| 1777660746 | 14.44° C | 34% | 1025.4 hPa | - | - | - | - |
| 1777660140 | 15° C | 34% | 1025.4 hPa | - | - | - | - |
| 1777659536 | 15° C | 34% | 1025.3 hPa | - | - | - | - |
| 1777658931 | 15.56° C | 33% | 1025.1 hPa | - | - | - | - |
| 1777658326 | 15.56° C | 32% | 1025.1 hPa | - | - | - | - |
| 1777657720 | 16.11° C | 32% | 1025.1 hPa | - | - | - | - |
| 1777657115 | 16.67° C | 31% | 1025 hPa | - | - | - | - |
* Rain since midnight (hover to see other rain measurements)
** Current wind speed in m/s (hover to see current wind gust speed)